Regional Weather Roundup
Issued by NWS

Home | Current Version | Previous Version | Text Only | Print | Product List | Glossary Off
Versions: 1 2 3 4 5 6 7 8 9 10 11 12 13 14 15 16 17 18 19 20 21 22 23 24 25 26 27 28 29 30 31 32 33 34 35 36 37 38 39 40 41 42 43 44 45 46 47 48 49 50

000
ASUS43 KFSD 021302
RWRSD

WEATHER ROUNDUP FOR SOUTH DAKOTA
NATIONAL WEATHER SERVICE SIOUX FALLS SD
800 AM CDT TUE JUN 02 2015

NOTE: "FAIR" INDICATES FEW OR NO CLOUDS BELOW 12,000 FEET WITH NO
SIGNIFICANT WEATHER AND/OR OBSTRUCTIONS TO VISIBILITY.


SDZ001>005-009-010-012>017-021400-
NORTHWEST AND NORTH CENTRAL SOUTH DAKOTA

CITY           SKY/WX    TMP DP  RH WIND       PRES   REMARKS
BUFFALO          N/A     62  56  80 CALM      29.78S
FAITH            N/A     63  60  90 NE10      29.77F
MOBRIDGE       MOSUNNY   64  63  96 SE9       29.75F
$$

SDZ012>016-024>037-041>051-057-063-072>074-021400-
SOUTHWEST AND SOUTH CENTRAL SOUTH DAKOTA

CITY           SKY/WX    TMP DP  RH WIND       PRES   REMARKS
RAPID CTY ARPT MOSUNNY   65  53  65 NW16      29.82S
PIERRE         CLOUDY    65  62  90 SE13      29.76F
CUSTER         SUNNY     60  46  59 W7        29.94S
ELLSWORTH AFB  SUNNY     64  55  71 NW17G26   29.82S
PINE RIDGE     MOSUNNY   66  54  65 S6        29.82F
WINNER         FAIR      66  58  75 S13       29.82S
$$

SDZ004>011-016>023-039-040-021400-
NORTHEAST SOUTH DAKOTA

CITY           SKY/WX    TMP DP  RH WIND       PRES   REMARKS
ABERDEEN       CLOUDY    61  56  83 SE13G20   29.84R THUNDER
WATERTOWN      CLOUDY    60  53  77 S17G25    29.88S
BROOKINGS      PTSUNNY   61  52  72 S21G29    29.94F
SISSETON         N/A     62  54  74 S16       29.86S
$$

SDZ017-020-022-023-036>040-048>070-021400-
SOUTHEAST SOUTH DAKOTA

CITY           SKY/WX    TMP DP  RH WIND       PRES   REMARKS
SIOUX FALLS    NOT AVBL
HURON          PTSUNNY   64  55  72 S20G28    29.84F
MITCHELL       MOSUNNY   64  56  75 S21G28    29.87F
YANKTON        PTSUNNY   61  54  77 SE16      29.93S
$$

ABBREVIATIONS USED IN REMARKS
   TC - TEMPERATURE IN CELSIUS
  WCI - WIND CHILL INDEX
   HX - HEAT INDEX
  VSB - VISIBILITY




USA.gov is the U.S. government's official web portal to all federal, state and local government web resources and services.